Regional Weather Roundup
Issued by NWS

Home | Current Version | Previous Version | Graphics & Text | Print | Product List | Glossary On
Versions: 1 2 3 4 5 6 7 8 9 10 11 12 13 14 15 16 17 18 19 20 21 22 23 24 25 26 27 28 29 30 31 32 33 34 35 36 37 38 39 40 41 42 43 44 45 46 47 48 49 50
942
ASUS43 KBIS 272310
RWRND

NORTH DAKOTA REGIONAL WEATHER ROUNDUP
NATIONAL WEATHER SERVICE BISMARCK ND
600 PM CDT SUN MAY 27 2018

NOTE: "FAIR" INDICATES FEW OR NO CLOUDS BELOW 12,000 FEET WITH NO
SIGNIFICANT WEATHER AND/OR OBSTRUCTIONS TO VISIBILITY.


NDZ001>003-009>011-017-280000-
NORTHWEST NORTH DAKOTA

CITY           SKY/WX    TMP DP  RH WIND       PRES   REMARKS
WILLISTON      MOSUNNY   80  55  42 N15G23    29.94S
MINOT          MOSUNNY   84  56  38 NW10G20   29.89R
MINOT AFB      MOSUNNY   83  55  38 N12       29.88R
$$

NDZ018>021-031>035-040>046-280000-
SOUTHWEST NORTH DAKOTA

CITY           SKY/WX    TMP DP  RH WIND       PRES   REMARKS
BISMARCK       SUNNY     81  62  52 N13G23    29.86S
DICKINSON      PTSUNNY   80  56  43 NE18      29.92R
GARRISON         N/A     80  56  43 NE10G18   29.89R
HETTINGER ARPT MOSUNNY   79  56  45 N16       29.91F
$$

NDZ004>008-012>016-024-026-027-054-280000-
NORTHEAST NORTH DAKOTA

CITY           SKY/WX    TMP DP  RH WIND       PRES   REMARKS
GRAND FORKS    FAIR      84  60  44 N3        29.81S
GRND FRKS AFB  FAIR      82  59  44 NE5       29.83S
DEVILS LAKE    PTSUNNY   80  59  48 SW7       29.87R
$$

NDZ022-023-025-028>030-036>039-047>053-280000-
SOUTHEAST NORTH DAKOTA

CITY           SKY/WX    TMP DP  RH WIND       PRES   REMARKS
FARGO          FAIR      82  64  54 NE15      29.78S
JAMESTOWN      CLOUDY    78  65  63 NE16      29.83R
$$





USA.gov is the U.S. government's official web portal to all federal, state and local government web resources and services.